Preview of NWS' New Version of Forecast
This preview is not operational and should not be used for support decisions.

Regional Weather Roundup (RWR)

Issued by National Weather Service (NWS)

                            
000
ASUS43 KLSX 180807
RWRMO 

WEATHER SUMMARY FOR MISSOURI
NATIONAL WEATHER SERVICE SPRINGFIELD MO
300 AM CDT THU JUL 18 2019

NOTE: "FAIR" INDICATES FEW OR NO CLOUDS BELOW 12,000 FEET WITH NO
       SIGNIFICANT WEATHER AND/OR OBSTRUCTIONS TO VISIBILITY.
       CURRENT SKY AND/OR WEATHER CONDITIONS ARE NOT AVAILABLE FOR
       CHILLICOTHE AND FARMINGTON.

MOZ001>031-035>038-043-044-053-054-180900-
...NORTHERN AND WESTERN MISSOURI...
  
CITY           SKY/WX    TMP DP  RH WIND       PRES   REMARKS
KANSAS CTY INT CLEAR     82  71  69 SW20G32   29.84F                  
KANSAS C DTWN  CLEAR     84  70  62 S16G30    29.84F                  
LEE'S SUMMIT   CLEAR     81  70  69 S21G30    29.87F                  
ST JOSEPH      CLEAR     83  72  69 S14G25    29.81F                  
CHILLICOTHE      N/A     79  73  82 SE6       29.85F                  
KIRKSVILLE     CLEAR     76  71  85 SW16G23   29.87F                  
     
$$
MOZ066>068-077>081-088>096-101>105-180900-
...SOUTHWEST MISSOURI...
  
CITY           SKY/WX    TMP DP  RH WIND       PRES   REMARKS
SPRINGFIELD    CLEAR     79  72  79 S12       30.00S                  
JOPLIN         CLEAR     79  72  79 S13       29.96S                  
               
$$
MOZ032>034-039>042-045>050-055>058-069>072-180900-
...CENTRAL MISSOURI...  
  
CITY           SKY/WX    TMP DP  RH WIND       PRES   REMARKS
COLUMBIA       CLEAR     74  66  76 S12       29.94F                  
ROLLA          CLEAR     70  67  90 S12       29.98F                  
SEDALIA        CLEAR     72  72 100 S9        29.94F                  
WHITEMAN AFB   MOCLDY    79  73  83 S14       29.88F                  
WARRENSBURG    CLEAR     79  70  73 S10G16    29.90F                  
OSAGE BEACH    CLEAR     74  66  76 S8        29.98F                  
               
$$
MOZ051-052-059>065-180900-
...EAST CENTRAL MISSOURI...
  
CITY           SKY/WX    TMP DP  RH WIND       PRES   REMARKS
ST LOUIS INTL  CLOUDY    75  68  78 SW7       29.93F                  
SPIRIT OF STL  CLEAR     74  70  87 W3        29.92F                  
ST CHARLES       N/A    N/A N/A N/A MISG      29.92S                  
                   
$$
MOZ072>076-082>087-097>100-106>115-180900-
...SOUTH CENTRAL AND SOUTHEAST MISSOURI...
  
CITY           SKY/WX    TMP DP  RH WIND       PRES   REMARKS
CAPE GIRARDEAU NOT AVBL                                               
FARMINGTON     PTCLDY    73  69  87 CALM      29.97S                  
POPLAR BLUFF   FAIR      73  71  93 SW9       29.94F                  
WEST PLAINS    CLEAR     73  68  84 S7        30.04F                  
                                       
$$